FW2175 Weather Reports


time (UTC)temp
F
wind
direction
speed
knots
gust
knots
rain 1hr
in
rain 24hr
in
rain mn
in
humidity
%
barometer
mb
20260504120109 52 0 0.0 1.7 0.00 0.00 0.00 60 1009.9
20260504081538 54 0 0.0 1.7 0.00 0.00 0.00 59 1009.9
20260504050110 59 99 0.0 1.7 0.00 0.00 0.00 59 1009.9
20260504044541 59 0 0.0 0.9 0.00 0.00 0.00 60 1009.9
20260504043041 60 0 0.0 1.7 0.00 0.00 0.00 60 1009.8
20260504041541 61 0 0.0 0.9 0.00 0.00 0.00 60 1009.8
20260504040048 62 0 0.0 0.9 0.00 0.00 0.00 59 1009.7
20260504034549 63 0 0.0 1.7 0.00 0.00 0.00 57 1009.6
20260504033045 65 0 0.0 1.7 0.00 0.00 0.00 52 1009.6
20260504031601 68 0 0.0 0.9 0.00 0.00 0.00 49 1009.5
20260504030043 68 0 0.0 0.9 0.00 0.00 0.00 47 1009.5
20260504024544 68 0 0.0 0.9 0.00 0.00 0.00 48 1009.6
20260504023045 70 182 0.0 0.9 0.00 0.00 0.00 46 1009.6
20260504021543 71 182 0.0 1.7 0.00 0.00 0.00 46 1009.7
20260504020042 72 183 0.0 2.6 0.00 0.00 0.00 45 1009.9
20260504014543 73 157 0.9 2.6 0.00 0.00 0.00 44 1010.0
20260504013037 74 0 0.9 2.6 0.00 0.00 0.00 42 1010.0
20260504011537 74 181 0.9 3.5 0.00 0.00 0.00 44 1010.1
20260504010046 75 184 0.9 2.6 0.00 0.00 0.00 42 1010.3
20260504004543 75 184 1.7 3.5 0.00 0.00 0.00 42 1010.5
20260504003046 77 182 0.9 3.5 0.00 0.00 0.00 38 1010.6
20260504001547 77 145 0.9 3.5 0.00 0.00 0.00 35 1010.6
20260504000037 77 193 1.7 3.5 0.00 0.00 0.00 37 1010.8
20260503234544 78 173 0.9 4.3 0.00 0.00 0.00 38 1010.9
20260503233043 79 233 2.6 6.1 0.00 0.00 0.00 38 1011.0
20260503231548 79 265 1.7 5.2 0.00 0.00 0.00 38 1011.0
20260503230041 78 244 1.7 3.5 0.00 0.00 0.00 38 1011.2
20260503224549 78 189 0.9 4.3 0.00 0.00 0.00 35 1011.4
20260503223044 77 173 1.7 3.5 0.00 0.00 0.00 41 1011.8
20260503221544 76 173 1.7 3.5 0.00 0.00 0.00 45 1011.9
20260503220043 76 172 0.9 3.5 0.00 0.00 0.00 41 1012.0
20260503214548 76 157 1.7 5.2 0.00 0.00 0.00 43 1012.3
20260503213103 76 181 0.9 4.3 0.00 0.00 0.00 42 1012.5
20260503211613 76 158 1.7 3.5 0.00 0.00 0.00 43 1012.5
20260503210044 75 252 1.7 7.0 0.00 0.00 0.00 42 1012.7
20260503204558 75 265 1.7 7.8 0.00 0.00 0.00 46 1012.8
20260503203041 74 268 3.5 7.0 0.00 0.00 0.00 45 1013.0
20260503201541 74 241 3.5 7.0 0.00 0.00 0.00 43 1013.1
20260503200047 74 191 1.7 4.3 0.00 0.00 0.00 46 1013.2
20260503194543 73 195 0.9 5.2 0.00 0.00 0.00 45 1013.4
20260503193044 73 148 1.7 4.3 0.00 0.00 0.00 50 1013.6
20260503191556 72 169 1.7 4.3 0.00 0.00 0.00 48 1013.7
20260503190043 74 167 1.7 4.3 0.00 0.00 0.00 47 1013.7
20260503184604 74 212 0.9 2.6 0.00 0.00 0.00 45 1013.8
20260503183047 73 230 1.7 5.2 0.00 0.00 0.00 41 1014.0
20260503181541 72 178 0.9 3.5 0.00 0.00 0.00 45 1014.2
20260503180041 71 0 0.9 4.3 0.00 0.00 0.00 40 1014.4
20260503174600 69 0 0.0 4.3 0.00 0.00 0.00 44 1014.5
20260503173036 68 246 0.9 2.6 0.00 0.00 0.00 46 1014.6
20260503171541 67 0 0.0 3.5 0.00 0.00 0.00 50 1014.6